Location: Nitra
(0.0000°N, 18.0833°E)
Time: 05:47:53
(UTC+01:00)

Cosmos 2369 Rocket - Pass Details

Date: 24 January 2021
Orbit: 830 x 851 km, 71.0° (Epoch: 04 March)

Event Time Altitude Azimuth Distance (km) Brightness Sun altitude
Rises 19:42:38 0° 190° (S) 3,414 5.8 -24.2°
Reaches altitude 10° 19:45:07 10° 187° (S) 2,475 4.9 -24.8°
Enters shadow 19:50:38 67° 113° (ESE) 918 2.1 -26.1°
